This is the latest recevied weather packets stored in our database for station/object NR5ON-13. If no packets are shown the sender has not sent any weather packets the latest 10 day(s).
| Time | Temp. | Humidity | Pressure | Rain* | Wind** | Luminosity | Snow |
|---|---|---|---|---|---|---|---|
| 1778019817 | 15° C | 42% | 1011.6 hPa | 0 mm | - | - | - |
| 1778019522 | 15.56° C | 40% | 1011.6 hPa | 0 mm | - | - | - |
| 1778019207 | 15.56° C | 41% | 1011.5 hPa | 0 mm | - | - | - |
| 1778018911 | 15.56° C | 40% | 1011.4 hPa | 0 mm | - | - | - |
| 1778018617 | 15.56° C | 40% | 1011.5 hPa | 0 mm | - | - | - |
| 1778018321 | 15.56° C | 41% | 1011.5 hPa | 0 mm | - | - | - |
| 1778018007 | 15.56° C | 40% | 1011.6 hPa | 0 mm | - | - | - |
| 1778017712 | 16.11° C | 40% | 1011.6 hPa | 0 mm | - | - | - |
| 1778017422 | 16.11° C | 41% | 1011.6 hPa | 0 mm | - | - | - |
| 1778017107 | 16.11° C | 41% | 1011.9 hPa | 0 mm | - | - | - |
| 1778016813 | 15.56° C | 42% | 1011.9 hPa | 0 mm | - | - | - |
| 1778016518 | 15.56° C | 41% | 1012.2 hPa | 0 mm | - | - | - |
| 1778016223 | 16.11° C | 40% | 1012.2 hPa | 0 mm | - | - | - |
| 1778015909 | 15.56° C | 43% | 1012.2 hPa | 0 mm | - | - | - |
| 1778015616 | 15.56° C | 43% | 1012.2 hPa | 0 mm | - | - | - |
| 1778015322 | 15° C | 43% | 1012.4 hPa | 0 mm | - | - | - |
| 1778015006 | 15° C | 44% | 1012.4 hPa | 0 mm | - | - | - |
| 1778014712 | 15° C | 44% | 1012.4 hPa | 0 mm | - | - | - |
| 1778014404 | 14.44° C | 45% | 1012.5 hPa | 0 mm | - | - | - |
| 1778014113 | 14.44° C | 47% | 1012.8 hPa | 0 mm | - | - | - |
| 1778013818 | 14.44° C | 45% | 1012.8 hPa | 0 mm | - | - | - |
| 1778013506 | 15° C | 43% | 1013 hPa | 0 mm | - | - | - |
| 1778013212 | 15° C | 44% | 1013.1 hPa | 0 mm | - | - | - |
| 1778012917 | 15° C | 45% | 1013.1 hPa | 0 mm | - | - | - |
| 1778012603 | 15° C | 45% | 1013.3 hPa | 0 mm | - | - | - |
* Rain latest hour (hover to see other rain measurements)
** Current wind speed in m/s (hover to see current wind gust speed)